Tracking 18945 objects as of 19-Jan-2018
HD Live streaming from Space Station
objects crossing your sky now

SATCOM C3

Track SATCOM C3 now!
SATCOM C3 is classified as:


NORAD ID: 22117
Int'l Code: 1992-060B
Perigee: 36,614.5 km
Apogee: 36,852.4 km
Inclination: 10.5 °
Period: 1,484.4 minutes
Semi major axis: 43104 km
RCS: 6.9709 m2 (large)
Launch date: September 10, 1992
Source: United States (US)
Launch site: FRENCH GUIANA (FRGUI)
aabbcc
Your satellite tracking list
Your tracking list is empty




NASA's NSSDC Master Catalog

Two Line Element Set (TLE):
1 22117U 92060B   18017.11363803 -.00000088 +00000-0 +00000-0 0  9999
2 22117 010.4577 040.2806 0027586 296.2799 217.4747 00.97010732091956
Source of the keplerian elements: AFSPC